Home > Weather > Bruges > Past weeks

Flag for Belgium Past Weather in Bruges, Belgium — Yesterday and Last 2 Weeks

Now
59 °F

Broken clouds.


Feels Like: 57 °F
Forecast: 57 / 66 °F
Wind: 9 mph from Southwest

Location: Oostende Airport

Current Time: Jun 30, 2016 at 8:53:13 AM

Latest Report: Jun 30, 2016 at 8:20 AM


Visibility: N/A

Pressure: 29.83 "Hg

Humidity: 88%

Dew Point: 55 °F

Location of BrugesLocation

Past Weather in Bruges — Graph

°F

Bruges Temperature Yesterday

Maximum temperature yesterday: 66 °F (at 3:20 PM)
Minimum temperature yesterday: 55 °F (at 12:20 AM)
Average temperature yesterday: 59 °F

High & Low Weather Summary for the Past Weeks

 TemperatureHumidityPressure
High79 °F (Jun 22, 5:20 PM)94% (Jun 16, 1:50 AM)30.27 "Hg (Jun 16, 1:50 AM)
Low46 °F (Jun 16, 2:50 AM)53% (Jun 16, 4:50 PM)29.45 "Hg (Jun 15, 7:20 AM)
Average60 °F82%29.97 "Hg
* Reported Jun 15 7:20 AM — Jun 30 7:20 AM, Bruges, Weather by CustomWeather, © 2016

Note: Actual official high and low records may vary slightly from our data, if they occured in-between our weather recording intervals... More about our weather records

Advertising

Bruges Weather History for the Previous 24 Hours

Scroll right to see more
 ConditionsComfort  
Time TempWeatherWind HumidityBarometerVisibility
7:20 AM
Thu, Jun 30
57 °FPartly sunny.8 mph94%29.83 "HgN/A
6:50 AM57 °FLight rain. Partly sunny.8 mph94%29.83 "HgN/A
6:20 AM57 °FLight rain. Partly cloudy.9 mph94%29.83 "Hg6 mi
5:50 AM57 °FLight rain. Partly cloudy.10 mph94%29.83 "Hg6 mi
5:20 AM57 °FPassing clouds.9 mph94%29.83 "HgN/A
4:50 AM57 °FLight rain. Partly cloudy.12 mph94%29.80 "HgN/A
4:20 AM57 °FLight rain. Partly cloudy.9 mph94%29.80 "Hg6 mi
3:50 AM57 °FLight rain. Partly cloudy.10 mph94%29.80 "Hg5 mi
3:20 AM57 °FLight rain. Passing clouds.8 mph94%29.83 "HgN/A
2:50 AM57 °FLight rain. Passing clouds.8 mph94%29.83 "HgN/A
2:20 AM57 °FPassing clouds.9 mph94%29.83 "HgN/A
1:50 AM57 °FPassing clouds.10 mph94%29.83 "HgN/A
1:20 AM57 °FPassing clouds.7 mph88%29.83 "HgN/A
12:50 AM57 °FPartly cloudy.8 mph88%29.83 "HgN/A
12:20 AM57 °FPartly cloudy.9 mph88%29.83 "HgN/A
11:50 PM
Wed, Jun 29
57 °FPassing clouds.10 mph88%29.83 "HgN/A
11:20 PM57 °FPartly cloudy.8 mph88%29.83 "HgN/A
10:50 PM57 °FPartly sunny.9 mph88%29.83 "HgN/A
10:20 PM57 °FPassing clouds.9 mph88%29.83 "HgN/A
9:50 PM57 °FPassing clouds.8 mph88%29.83 "HgN/A
9:20 PM57 °FPartly sunny.8 mph88%29.83 "HgN/A
8:50 PM57 °FPartly sunny.10 mph88%29.83 "HgN/A
8:20 PM57 °FLight rain. Passing clouds.8 mph88%29.86 "HgN/A
7:50 PM57 °FLight rain. Passing clouds.10 mph94%29.86 "HgN/A
7:20 PM59 °FLight rain. Passing clouds.8 mph88%29.86 "HgN/A
6:50 PM59 °FLight rain. Passing clouds.9 mph82%29.86 "HgN/A
6:20 PM59 °FLight rain. Scattered clouds.8 mph88%29.86 "HgN/A
5:50 PM59 °FLight rain. Scattered clouds.13 mph82%29.89 "HgN/A
5:20 PM59 °FLight rain. Scattered clouds.9 mph82%29.89 "HgN/A
4:50 PM61 °FLight rain. Scattered clouds.15 mph72%29.89 "HgN/A
4:20 PM63 °FScattered clouds.17 mph64%29.89 "HgN/A
3:50 PM64 °FScattered clouds.17 mph60%29.89 "HgN/A
3:20 PM66 °FScattered clouds.18 mph56%29.89 "HgN/A
2:50 PM64 °FScattered clouds.21 mph60%29.89 "HgN/A
2:20 PM64 °FScattered clouds.20 mph60%29.89 "HgN/A
1:50 PM64 °FScattered clouds.18 mph60%29.89 "HgN/A
1:20 PM64 °FScattered clouds.18 mph64%29.89 "HgN/A
12:50 PM64 °FScattered clouds.20 mph64%29.89 "HgN/A
12:20 PM64 °FScattered clouds.16 mph64%29.89 "HgN/A
11:50 AM63 °FScattered clouds.16 mph68%29.89 "HgN/A
11:20 AM63 °FScattered clouds.14 mph73%29.89 "HgN/A
10:50 AM59 °FScattered clouds.13 mph82%29.92 "HgN/A
9:50 AM59 °FPassing clouds.14 mph77%29.89 "HgN/A
9:20 AM57 °FScattered clouds.17 mph82%29.89 "HgN/A
8:50 AM57 °FPartly sunny.18 mph82%29.89 "HgN/A
8:20 AM57 °FPartly sunny.17 mph82%29.89 "HgN/A
Weather by CustomWeather, © 2016

See weather overviewHow to use our weather pages